Location: Lafig�re
(44.4503°N, 4.0357°E)
Time: 15:56:25
(UTC+00:00)

CSL-04 Debris - Pass Details

Date: 24 September 2020
Orbit: 827 x 847 km, 98.9° (Epoch: 25 October)

Event Time Altitude Azimuth Distance (km) Brightness Sun altitude
Rises 18:21:51 0° 157° (SSE) 3,355 7.0 -8.8°
Reaches altitude 10° 18:24:12 10° 155° (SSE) 2,425 6.3 -9.2°
Maximum altitude 18:29:32 71° 72° (ENE) 875 4.1 -10.2°
Drops below altitude 10° 18:34:55 10° 350° (N) 2,443 6.9 -11.1°
Sets 18:37:17 0° 348° (NNW) 3,382 7.6 -11.6°
